Location: Feura Bush
(42.5779°N, 73.8787°W)
Time: 00:50:23
(UTC+00:00)

ACS3 Solar Sail - Pass Details

Date: 12 October 2024
Orbit: 961 x 1022 km, 97.5° (Epoch: 03 November)

Event Time Altitude Azimuth Distance (km) Brightness Sun altitude
Exits shadow 01:04:29 63° 205° (SSW) 1,143 2.0 -30.9°
Maximum altitude 01:05:26 73° 259° (W) 1,075 2.0 -31.1°
Drops below altitude 10° 01:11:52 10° 344° (NNW) 2,838 4.6 -32.2°
Sets 01:14:24 0° 347° (NNW) 3,793 5.3 -32.6°
